Hourly Data Report for October 09, 2016

All times are specified in Local Standard Time (LST). Add 1 hour to adjust for Daylight Saving Time where and when it is observed.

PENTICTON A
BRITISH COLUMBIA

49°27'45.000" N
119°36'08.000" W
344.40 m
1126146
71889
YYF

Download Data

Hourly Data (October 2016)
Hourly Data Report for October 9, 2016
Temp Definition
°C
Dew Point Temp Definition
°C
Rel Hum Definition
%
Wind Dir Definition
10's deg

Wind Spd Definition
km/h
Visibility Definition
km
Stn Press Definition
kPa
Hmdx Definition


Wind Chill Definition


Weather Definition


TIME
00:00 Legend Double Dagger 10.7 9.5 92 2 5 24.1 96.69     Rain
01:00 Legend Double Dagger 10.5 9.9 96 36 11 24.1 96.78     Rain
02:00 Legend Double Dagger 10.6 9.8 95 35 10 24.1 96.89     Rain
03:00 Legend Double Dagger 11.4 7.0 74 35 27 24.1 96.98     LegendNANA
04:00 Legend Double Dagger 9.9 7.3 84 34 16 24.1 97.10     Mostly Cloudy
05:00 Legend Double Dagger 9.7 5.7 76 36 15 24.1 97.25     LegendNANA
06:00 Legend Double Dagger 10.2 4.4 67 35 16 24.1 97.33     LegendNANA
07:00 Legend Double Dagger 9.8 3.8 66 34 14 24.1 97.42     Mostly Cloudy
08:00 Legend Double Dagger 11.4 2.7 55 33 13 24.1 97.52     LegendNANA
09:00 Legend Double Dagger 12.6 3.6 54 35 22 24.1 97.55     LegendNANA
10:00 Legend Double Dagger 13.1 2.4 48 36 17 24.1 97.59     Mostly Cloudy
11:00 Legend Double Dagger 12.6 2.2 49 3 23 24.1 97.58     LegendNANA
12:00 Legend Double Dagger 14.2 2.5 45 1 20 24.1 97.54     LegendNANA
13:00 Legend Double Dagger 14.1 2.4 45 2 16 24.1 97.51     Mostly Cloudy
14:00 Legend Double Dagger 14.8 1.8 41 2 18 24.1 97.48     LegendNANA
15:00 Legend Double Dagger 14.8 -0.4 35 2 18 24.1 97.45     LegendNANA
16:00 Legend Double Dagger 13.4 1.1 43 36 17 24.1 97.38     Mostly Cloudy
17:00 Legend Double Dagger 11.5 1.8 51 35 8 24.1 97.39     LegendNANA
18:00 Legend Double Dagger 9.7 1.4 56 2 9 24.1 97.40     LegendNANA
19:00 Legend Double Dagger 10.6 0.4 49 33 19 24.1 97.38     Mainly Clear
20:00 Legend Double Dagger 10.3 0.9 52 33 13 24.1 97.39     LegendNANA
21:00 Legend Double Dagger 10.1 0.2 50 34 17 24.1 97.37     LegendNANA
22:00 Legend Double Dagger 9.7 -0.2 50 32 23 24.1 97.40     Mostly Cloudy
23:00 Legend Double Dagger 9.0 -0.6 51 32 23 24.1 97.35     LegendNANA

Notes on Data Quality.

Legend

  • E = Estimated
  • M = Missing
  • NA = Not Available
  • ‡ = Partner data that is not subject to review by the National Climate Archives
Date modified: